This is the latest recevied weather packets stored in our database for station/object KE8GJZ-1. If no packets are shown the sender has not sent any weather packets the latest 10 day(s).
| Time | Temp. | Humidity | Pressure | Rain* | Wind** | Luminosity | Snow |
|---|---|---|---|---|---|---|---|
| 1777423824 | 12.78° C | 78% | 1010.5 hPa | 0 mm | - | 0 W/m² | - |
| 1777423520 | 12.78° C | 77% | 1010.6 hPa | 0 mm | - | 0 W/m² | - |
| 1777423214 | 13.33° C | 76% | 1011 hPa | 0 mm | - | 0 W/m² | - |
| 1777422909 | 13.33° C | 77% | 1010.7 hPa | 0 mm | - | 0 W/m² | - |
| 1777422605 | 13.33° C | 76% | 1010.9 hPa | 0 mm | - | 0 W/m² | - |
| 1777422302 | 13.33° C | 76% | 1011.1 hPa | 0 mm | - | 3 W/m² | - |
| 1777422001 | 13.89° C | 75% | 1010.7 hPa | 0 mm | - | 3 W/m² | - |
| 1777421696 | 13.89° C | 74% | 1011 hPa | 0 mm | - | 6 W/m² | - |
| 1777421391 | 13.89° C | 73% | 1010.6 hPa | 0 mm | - | 7 W/m² | - |
| 1777421088 | 13.89° C | 72% | 1010.8 hPa | 0 mm | - | 10 W/m² | - |
| 1777420784 | 14.44° C | 73% | 1010.8 hPa | 0 mm | - | 11 W/m² | - |
| 1777420480 | 14.44° C | 72% | 1010.7 hPa | 0 mm | - | 12 W/m² | - |
| 1777420177 | 14.44° C | 71% | 1010.9 hPa | 0 mm | - | 13 W/m² | - |
| 1777419873 | 14.44° C | 70% | 1010.7 hPa | 0 mm | - | 16 W/m² | - |
| 1777419570 | 15° C | 69% | 1010.9 hPa | 0 mm | - | 16 W/m² | - |
| 1777419269 | 15° C | 68% | 1011 hPa | 0 mm | - | 18 W/m² | - |
| 1777418966 | 15° C | 69% | 1010.8 hPa | 0 mm | - | 19 W/m² | - |
| 1777418661 | 15° C | 69% | 1010.8 hPa | 0 mm | - | 21 W/m² | - |
| 1777418358 | 15° C | 69% | 1010.8 hPa | 0 mm | - | 23 W/m² | - |
| 1777418054 | 15.56° C | 70% | 1010.8 hPa | 0 mm | - | 26 W/m² | - |
| 1777417750 | 15.56° C | 68% | 1010.8 hPa | 0 mm | - | 37 W/m² | - |
| 1777417445 | 15.56° C | 67% | 1010.8 hPa | 0 mm | - | 36 W/m² | - |
| 1777417142 | 15.56° C | 66% | 1010.7 hPa | 0 mm | - | 38 W/m² | - |
| 1777416837 | 15.56° C | 67% | 1010.8 hPa | 0 mm | - | 37 W/m² | - |
| 1777416534 | 15.56° C | 67% | 1010.7 hPa | 0 mm | - | 59 W/m² | - |
* Rain latest hour (hover to see other rain measurements)
** Current wind speed in m/s (hover to see current wind gust speed)